Simultaneous Nadir Overpasses (SNOs) Predictions

Prediction of SNOs between AQUA and NPP Satellite Orbit:

Table of predicted SNOs for the next 14.0 days since TLE Epoch: 6/23/2017
Index Date (AQUA) Time (AQUA) Lat,Lon (AQUA) SZA (AQUA ) Date (NPP) Time (NPP) Lat,Lon (NPP) SZA (NPP ) Distance(km) Time Diff (sec)
1 06/25/2017 14:05:13 -75.22, 25.47 104.60 06/25/2017 14:04:42 -75.23, 25.54 104.59 2.19 31
2 06/25/2017 14:54:21 76.08,-164.39 74.41 06/25/2017 14:55:08 76.07,-164.45 74.38 1.59 47
3 06/28/2017 05:37:32 57.36, -47.60 94.07 06/28/2017 05:36:19 57.59, -48.86 94.31 79.82 73
4 06/28/2017 06:21:31 -75.68, 142.66 105.00 06/28/2017 06:21:27 -75.69, 142.74 105.02 2.36 4
5 06/28/2017 07:10:28 77.04, -45.21 73.38 06/28/2017 07:11:42 77.00, -45.18 73.33 4.66 74
6 06/30/2017 21:48:50 74.64, 88.10 76.38 06/30/2017 21:47:57 74.64, 88.09 76.43 0.18 53
7 06/30/2017 22:37:57 -75.69,-101.43 104.83 06/30/2017 22:38:21 -75.68,-101.52 104.83 2.77 24
8 07/03/2017 14:05:06 75.19,-154.58 75.97 07/03/2017 14:04:40 75.20,-154.55 75.98 1.04 26
9 07/03/2017 14:54:15 -76.14, 15.80 105.13 07/03/2017 14:55:06 -76.13, 15.75 105.16 1.46 51
10 07/06/2017 05:33:49 -69.86, 143.40 97.95 07/06/2017 05:32:35 -69.95, 142.91 97.83 21.65 74
11 07/06/2017 06:21:22 75.73, -37.17 75.61 07/06/2017 06:21:23 75.74, -37.07 75.58 2.80 1




NCC Satellite Simultaneous Nadir Overpasses (SNOs) Prediction Service
